Terug naar catalogus

USA 82

ActiefMilitairGEO
NORAD 22009·PAYLOAD·🇺🇸 United States

Gelanceerd Jul 2, 1992 vanaf Cape Canaveral Space Force Station

Loading…

TLE

VersSource: Space-Track

Epoch: Sep 14, 2026, 11:30 UTC

1 22009U 92037A   26257.47974568 -.00000055  00000-0  00000-0 0  9997
2 22009  14.2793   9.0116 0005959  33.1340 332.2572  0.98812615 26035

Volg USA 82 in realtime met AllMySat

Download on the App Store